Wind_Speed
6 5 3 5 2 4 7 6 12 14 14 6 11 23 21 32 28 24 28 29 32 29 31 31 29 27 22 30 38 45 46 49 46 44 44 44 43 39 35 34 33 32 31 30
6 1 1 5 3 6 7 7 11 9 6 12 16 24 23 18 11 16 18 21 23 29 27 27 30 31 28 25 33 41 47 49 51 48 46 47 46 41 39 38 32 29 30 33
2 4 7 5 8 5 5 9 7 15 17 12 8 8 12 9 7 8 14 16 21 24 21 16 20 26 31 31 30 38 43 48 52 52 50 47 43 40 39 37 34 33 32 32
5 3 4 5 4 1 7 7 9 17 12 9 5 7 12 4 8 3 12 22 26 31 28 23 17 14 20 25 27 31 38 48 51 56 55 51 49 48 44 41 39 36 34 32
5 6 8 4 3 2 9 12 12 16 14 8 3 3 8 4 3 6 7 18 23 30 31 32 26 21 16 22 26 29 37 47 52 57 57 54 51 50 47 42 40 38 37 37
6 7 3 4 4 6 7 13 13 3 1 2 3 3 9 4 3 5 11 18 21 30 33 33 31 24 18 15 26 31 33 44 51 55 56 55 55 52 47 47 43 42 40 39
8 5 4 2 6 4 10 6 5 6 4 5 2 4 10 3 1 5 12 24 25 29 30 33 37 33 22 14 17 27 36 41 49 53 55 56 56 52 48 49 47 46 44 41
5 9 2 2 3 4 4 3 1 6 3 12 11 6 5 3 4 15 20 23 27 28 27 30 35 36 26 19 15 22 31 37 47 50 53 56 55 52 49 49 47 47 46 41
5 6 5 8 4 4 5 1 3 5 3 4 3 7 5 5 14 24 31 33 37 38 36 34 33 35 29 21 15 20 26 32 41 41 54 56 56 53 50 49 49 49 46 43
1 8 4 6 7 1 3 4 4 2 5 6 5 5 6 8 19 20 20 27 35 35 37 37 31 30 31 23 20 22 26 31 36 41 47 46 49 53 48 49 50 49 46 40
1 3 7 6 2 2 5 4 2 3 4 4 6 5 4 9 22 21 19 30 33 37 36 34 31 29 27 26 22 23 32 30 34 40 43 45 51 44 42 45 47 46 42 38
1 3 5 7 12 5 4 2 1 2 4 4 5 7 5 17 17 27 28 25 33 33 34 33 30 27 24 21 20 23 29 30 37 39 42 45 41 40 38 40 40 38 38 36
2 3 6 9 5 4 2 3 5 5 6 8 4 6 18 21 21 32 26 31 33 32 32 30 26 21 18 15 13 15 26 35 37 37 40 40 37 33 31 34 35 33 35 36
3 2 7 6 9 4 10 14 17 5 4 5 10 18 26 24 27 28 30 34 31 28 28 26 20 16 12 7 10 18 29 35 38 38 38 39 35 34 31 30 35 39 39 41
2 4 4 11 19 17 17 18 18 10 11 5 12 21 22 23 22 18 26 28 29 30 28 22 17 10 4 3 13 24 29 36 38 38 38 35 34 32 32 37 42 43 42 40
2 4 5 6 4 0 14 14 13 14 13 10 12 20 22 34 31 20 27 27 26 27 26 21 15 9 10 9 14 23 29 33 36 37 37 38 37 39 45 48 48 46 43 38
2 1 4 6 10 13 4 4 3 5 11 5 9 20 20 23 21 19 29 26 26 26 26 23 20 16 17 19 17 21 29 34 38 43 45 46 51 55 55 52 50 44 42 39
2 1 2 5 9 4 4 7 7 6 15 2 10 15 19 22 30 17 32 26 25 26 25 25 21 22 21 26 31 35 36 37 43 48 52 55 57 56 52 47 44 43 37 33
6 1 3 1 2 8 6 1 3 1 5 2 12 16 24 30 19 9 33 23 21 20 21 22 21 24 25 28 31 38 44 48 52 56 57 55 52 51 48 47 41 36 34 31
4 4 3 2 1 4 4 0 6 3 4 5 13 15 20 24 12 8 28 22 20 19 20 21 22 25 29 31 35 42 47 52 54 53 52 50 47 48 44 41 37 34 30 28
2 3 6 4 5 9 12 9 0 4 5 21 18 15 18 7 8 16 18 21 23 23 24 23 24 28 31 34 38 45 47 48 46 45 44 44 42 39 37 35 31 29 26 24
7 7 4 4 2 7 11 1 2 4 13 14 15 15 17 15 15 15 15 17 19 20 21 24 27 30 31 32 33 38 41 39 40 40 38 36 33 32 30 27 26 24 21 20
3 7 5 10 7 8 7 7 9 15 7 10 11 12 12 13 14 12 12 13 14 18 23 24 26 30 32 32 32 37 36 32 32 32 31 30 29 27 24 22 21 20 18 17
5 10 4 1 5 18 29 25 10 9 8 9 8 8 7 7 8 9 10 12 13 14 16 17 19 24 25 25 26 28 29 26 26 28 27 25 24 22 20 18 16 15 14 13
7 10 6 6 13 22 27 24 16 14 11 4 4 4 5 6 7 7 9 11 11 12 13 14 17 21 22 21 22 22 22 21 22 23 23 22 20 18 17 16 13 12 11 7
13 7 6 7 10 3 3 4 5 9 9 2 2 2 5 6 6 6 7 7 9 9 11 12 15 17 19 17 19 18 17 16 16 19 20 18 15 11 11 13 14 13 10 8
Wind_Direction
354 50 8 326 314 265 264 270 288 284 280 298 276 289 297 284 287 279 279 280 283 275 277 269 260 256 258 247 244 238 230 226 225 219 218 219 221 224 225 224 226 229 216 215
13 359 13 328 308 304 297 285 285 282 285 313 301 299 284 294 276 279 282 300 310 309 291 282 271 255 256 256 244 239 236 229 228 223 221 221 220 220 226 221 218 218 215 217
186 270 353 14 322 325 294 281 277 292 311 285 305 296 284 284 299 9 29 14 6 4 354 327 297 279 261 250 251 239 235 232 229 226 220 220 218 218 219 217 215 214 214 215
247 275 352 325 262 188 299 254 288 295 318 307 57 304 294 301 317 353 1 0 0 1 358 343 334 304 267 257 250 248 238 232 230 224 220 220 221 216 217 218 221 216 212 215
268 317 344 321 265 349 260 306 286 289 292 303 336 245 269 300 297 342 336 342 346 346 344 342 336 325 304 246 249 256 238 231 229 222 225 222 222 220 222 214 215 213 212 215
264 291 229 239 294 279 301 324 312 17 275 310 217 180 283 309 8 327 334 338 337 339 334 335 333 325 313 258 233 247 242 228 225 221 225 222 219 221 218 211 212 213 211 208
327 297 302 348 324 330 10 359 339 353 1 233 160 286 254 264 348 355 338 336 333 334 330 327 329 326 313 298 239 236 242 228 218 219 224 222 222 226 224 219 212 210 211 209
16 331 9 49 205 275 316 128 253 307 300 296 279 230 260 148 18 337 337 333 332 328 323 327 320 318 309 297 248 230 230 226 220 214 223 219 222 224 225 219 215 213 214 215
354 270 311 297 244 127 290 331 223 265 254 275 262 287 296 29 355 349 342 331 330 328 326 319 314 310 306 288 257 238 216 224 218 223 214 220 220 222 223 217 213 210 208 208
297 290 249 290 322 125 153 315 340 347 307 295 264 268 254 360 345 339 327 322 325 322 317 314 311 306 302 285 261 222 223 213 217 221 222 223 223 221 219 218 210 203 201 198
87 206 295 343 224 20 340 349 12 277 246 285 313 272 181 349 340 332 325 322 322 317 315 311 307 303 298 290 267 231 211 213 213 214 216 219 213 212 211 212 205 201 193 187
208 230 279 269 287 261 225 196 10 253 315 269 261 275 205 332 335 333 328 326 321 317 314 313 308 306 303 294 267 235 207 208 210 213 213 213 208 211 205 206 199 191 183 174
217 309 311 339 5 26 10 292 278 311 267 246 264 280 311 322 330 333 330 333 328 324 322 322 319 307 302 290 273 228 199 200 204 209 212 207 208 206 205 190 184 169 159 152
193 232 198 221 260 334 298 293 297 281 268 283 274 298 315 333 331 335 340 335 332 331 332 333 328 319 305 271 185 189 187 196 199 199 201 199 195 194 188 175 160 155 151 145
84 246 215 249 264 273 268 275 286 292 270 272 296 304 319 326 325 328 335 337 341 343 350 354 351 348 340 178 161 166 177 176 186 191 184 178 177 175 160 150 146 145 146 147
79 274 308 289 287 25 289 273 260 266 287 277 300 315 330 321 329 352 349 349 351 353 5 15 29 56 80 118 145 153 159 164 172 172 168 162 154 148 144 144 144 145 146 143
252 281 350 272 319 313 347 254 252 276 271 293 334 314 320 325 332 8 354 359 359 7 26 37 50 71 96 109 129 143 146 148 151 149 143 144 143 142 142 144 146 144 137 134
135 354 286 284 333 12 248 296 250 258 282 283 302 311 325 324 327 9 9 6 17 27 39 53 66 80 99 113 122 128 133 137 137 137 141 142 140 140 142 141 138 133 136 146
211 214 287 305 252 291 295 40 338 319 298 24 320 330 334 337 328 18 11 25 34 45 57 70 81 92 104 111 120 126 128 131 134 134 135 139 140 138 138 133 132 138 145 145
199 209 126 35 333 241 251 129 337 180 292 11 350 340 339 347 13 347 3 28 42 52 64 78 90 98 104 115 125 123 124 127 127 133 135 138 137 133 130 130 143 144 146 143
192 204 212 214 266 282 255 275 266 49 292 336 344 344 344 360 360 341 20 46 56 66 75 84 90 99 109 118 121 120 124 125 129 131 131 127 126 128 135 140 141 144 146 146
173 159 200 170 212 284 219 242 164 248 307 330 344 355 353 6 13 25 39 60 63 61 71 81 92 101 107 111 114 115 114 119 122 123 123 127 129 133 136 138 141 146 145 143
247 194 178 188 217 251 220 227 258 306 285 334 346 357 8 14 20 37 53 69 70 71 81 89 95 104 109 110 112 114 115 122 123 124 126 130 132 131 137 142 139 143 150 156
243 192 229 155 261 241 260 277 265 226 300 316 345 5 26 27 29 50 72 82 87 93 93 94 104 110 112 116 118 116 121 125 128 129 131 131 131 136 140 144 145 148 149 156
213 150 199 269 282 271 266 259 250 250 293 282 350 23 63 54 50 64 82 90 94 102 109 108 114 115 117 122 121 122 126 132 134 133 134 136 139 142 142 141 140 143 143 142
187 193 183 219 225 202 238 21 163 179 182 188 344 51 87 77 71 67 77 91 97 102 112 125 120 122 123 127 123 125 130 139 143 143 143 143 144 151 159 162 161 163 173 168
Height
1513 1517 1518 1517 1516 1515 1514 1513 1508 1498 1486 1487 1480 1466 1459 1446 1444 1441 1438 1435 1431 1431 1431 1432 1435 1436 1438 1438 1441 1445 1448 1453 1457 1461 1464 1469 1472 1476 1482 1486 1491 1496 1499 1504
1519 1518 1514 1515 1514 1514 1512 1510 1502 1492 1484 1484 1472 1462 1450 1441 1439 1436 1434 1432 1429 1425 1425 1425 1426 1428 1430 1431 1433 1435 1439 1444 1448 1454 1458 1462 1466 1471 1477 1482 1487 1491 1495 1499
1525 1515 1514 1514 1514 1512 1509 1505 1499 1492 1482 1478 1473 1461 1445 1437 1436 1435 1433 1432 1428 1424 1420 1419 1419 1419 1422 1424 1426 1427 1430 1435 1441 1445 1451 1456 1461 1466 1469 1476 1481 1485 1490 1495
1522 1513 1515 1516 1514 1510 1507 1496 1495 1490 1490 1486 1476 1474 1444 1436 1433 1434 1433 1430 1428 1424 1420 1416 1414 1412 1413 1415 1419 1419 1422 1427 1432 1436 1441 1447 1452 1456 1461 1466 1473 1479 1485 1491
1518 1516 1516 1515 1510 1509 1505 1497 1494 1486 1487 1485 1476 1477 1447 1436 1432 1435 1433 1430 1427 1425 1421 1415 1412 1409 1406 1408 1411 1414 1415 1418 1424 1426 1432 1440 1446 1451 1454 1458 1466 1475 1478 1485
1521 1516 1516 1512 1508 1506 1503 1496 1486 1486 1482 1499 1472 1477 1441 1437 1436 1435 1432 1430 1426 1422 1417 1413 1409 1405 1401 1399 1402 1406 1409 1412 1416 1419 1425 1432 1437 1443 1449 1454 1460 1462 1475 1478
1528 1516 1513 1512 1512 1506 1505 1510 1529 1516 1516 1494 1468 1470 1443 1436 1436 1436 1432 1426 1423 1419 1414 1409 1404 1399 1396 1394 1395 1399 1401 1405 1410 1413 1419 1426 1430 1436 1441 1446 1452 1459 1466 1471
1553 1538 1516 1516 1516 1512 1511 1518 1514 1501 1512 1477 1458 1461 1435 1435 1437 1435 1432 1427 1421 1417 1413 1406 1401 1396 1392 1390 1391 1392 1396 1401 1405 1407 1413 1419 1425 1431 1436 1440 1446 1452 1459 1466
1556 1541 1516 1514 1511 1512 1513 1522 1503 1500 1494 1484 1463 1449 1434 1435 1433 1428 1424 1422 1415 1408 1403 1401 1397 1391 1386 1384 1384 1387 1388 1394 1398 1406 1404 1410 1417 1422 1429 1435 1440 1445 1451 1459
1548 1549 1520 1515 1509 1507 1511 1508 1513 1514 1500 1492 1459 1449 1439 1439 1433 1431 1427 1420 1412 1406 1400 1394 1390 1385 1380 1377 1377 1380 1383 1387 1392 1400 1403 1406 1408 1416 1423 1429 1434 1438 1445 1451
1546 1551 1528 1518 1511 1513 1520 1520 1511 1509 1500 1487 1471 1448 1439 1437 1435 1429 1425 1418 1410 1403 1395 1388 1383 1378 1374 1370 1370 1371 1377 1382 1388 1393 1399 1404 1403 1408 1416 1424 1429 1434 1441 1447
1546 1551 1548 1522 1509 1511 1512 1515 1513 1510 1498 1493 1485 1453 1435 1434 1432 1429 1422 1415 1408 1400 1390 1382 1376 1371 1368 1364 1362 1363 1369 1379 1381 1389 1395 1400 1400 1408 1413 1421 1427 1436 1440 1445
1547 1561 1555 1529 1515 1511 1512 1507 1511 1512 1507 1492 1485 1456 1432 1433 1430 1426 1419 1412 1404 1395 1386 1377 1371 1366 1362 1359 1357 1358 1363 1369 1377 1386 1392 1396 1402 1407 1415 1418 1428 1440 1447 1453
1544 1548 1558 1548 1520 1522 1518 1509 1507 1512 1503 1485 1469 1455 1436 1434 1429 1419 1415 1410 1402 1394 1384 1376 1369 1364 1360 1357 1356 1357 1362 1368 1373 1380 1387 1394 1400 1408 1414 1424 1432 1440 1453 1457
1545 1557 1551 1537 1526 1523 1519 1514 1505 1506 1493 1483 1466 1458 1448 1442 1433 1426 1421 1411 1401 1392 1384 1377 1370 1365 1361 1359 1358 1358 1363 1366 1371 1377 1385 1394 1400 1409 1417 1428 1438 1447 1456 1460
1545 1556 1540 1530 1516 1516 1511 1502 1497 1493 1484 1477 1468 1458 1453 1443 1434 1428 1421 1413 1405 1396 1388 1380 1375 1370 1366 1364 1363 1363 1365 1369 1373 1378 1386 1395 1403 1415 1421 1433 1443 1451 1458 1465
1544 1550 1550 1546 1520 1513 1513 1491 1487 1485 1480 1479 1472 1467 1453 1441 1433 1430 1423 1417 1409 1402 1394 1386 1381 1377 1373 1371 1372 1372 1372 1375 1377 1382 1392 1400 1407 1418 1428 1438 1446 1454 1462 1470
1547 1547 1542 1550 1535 1524 1491 1488 1485 1483 1475 1479 1475 1466 1460 1448 1438 1434 1429 1422 1415 1407 1401 1394 1389 1385 1383 1381 1380 1381 1381 1384 1388 1391 1399 1408 1416 1425 1436 1443 1454 1462 1469 1477
1540 1542 1550 1560 1558 1519 1488 1484 1486 1486 1476 1476 1472 1463 1457 1447 1437 1436 1433 1427 1421 1415 1409 1404 1399 1396 1393 1392 1391 1389 1389 1391 1396 1402 1410 1419 1428 1435 1444 1451 1461 1469 1474 1478
1539 1539 1552 1570 1552 1553 1488 1483 1483 1484 1480 1475 1472 1466 1460 1450 1441 1444 1439 1433 1427 1422 1416 1412 1408 1406 1400 1404 1403 1402 1405 1408 1412 1420 1427 1435 1441 1446 1451 1459 1467 1472 1479 1483
1548 1539 1546 1562 1555 1525 1488 1484 1484 1487 1484 1474 1472 1469 1464 1460 1461 1454 1446 1439 1434 1430 1426 1422 1419 1417 1418 1418 1418 1418 1420 1424 1430 1435 1442 1447 1452 1456 1461 1467 1474 1479 1484 1486
1537 1544 1551 1540 1555 1528 1478 1482 1482 1482 1477 1476 1472 1470 1466 1463 1460 1455 1451 1447 1444 1440 1437 1434 1432 1432 1432 1433 1434 1436 1437 1443 1447 1450 1453 1457 1461 1466 1472 1477 1480 1484 1487 1489
1527 1509 1517 1517 1501 1477 1475 1475 1475 1476 1475 1474 1472 1470 1468 1465 1462 1459 1456 1454 1452 1449 1447 1446 1445 1444 1445 1447 1449 1448 1451 1456 1458 1460 1463 1467 1471 1475 1481 1484 1485 1488 1492 1495
1503 1499 1502 1496 1471 1471 1471 1473 1471 1472 1473 1472 1471 1470 1468 1467 1465 1462 1460 1458 1458 1457 1456 1455 1454 1454 1454 1456 1457 1458 1460 1464 1467 1469 1472 1476 1478 1482 1486 1489 1491 1493 1495 1496
1494 1494 1492 1487 1471 1469 1467 1466 1469 1469 1471 1471 1470 1469 1469 1468 1467 1465 1463 1462 1461 1461 1461 1462 1462 1461 1461 1463 1464 1466 1467 1470 1472 1474 1477 1481 1484 1488 1490 1492 1494 1495 1497 1500
1477 1473 1477 1472 1461 1462 1462 1461 1462 1465 1468 1470 1470 1469 1468 1468 1468 1467 1465 1464 1464 1464 1465 1466 1466 1467 1467 1469 1470 1472 1475 1477 1479 1481 1483 1486 1488 1490 1491 1493 1494 1496 1499 1499